TimeEDT,TemperatureF,Dew PointF,Humidity,Sea Level PressureIn,VisibilityMPH,Wind Direction,Wind SpeedMPH,Gust SpeedMPH,PrecipitationIn,Events,Conditions,WindDirDegrees,DateUTC
12:15 AM,58.5,54.9,88,30.25,10.0,Calm,Calm,-,N/A,,Overcast,0,2013-08-17 04:15:00
12:35 AM,58.3,55.2,90,30.25,5.0,Calm,Calm,-,N/A,,Overcast,0,2013-08-17 04:35:00
12:55 AM,57.9,55.0,90,30.25,3.0,Calm,Calm,-,N/A,,Overcast,0,2013-08-17 04:55:00
1:15 AM,57.4,54.7,91,30.26,0.2,Calm,Calm,-,N/A,Fog,Fog,0,2013-08-17 05:15:00
1:35 AM,57.0,54.3,91,30.26,1.5,Calm,Calm,-,N/A,,Scattered Clouds,0,2013-08-17 05:35:00
1:55 AM,56.8,54.3,91,30.27,0.8,Calm,Calm,-,N/A,,Mist,0,2013-08-17 05:55:00
2:15 AM,56.3,53.6,91,30.27,0.5,Calm,Calm,-,N/A,Fog,Fog,0,2013-08-17 06:15:00
2:35 AM,55.4,52.9,91,30.27,0.5,Calm,Calm,-,N/A,Fog,Fog,0,2013-08-17 06:35:00
2:55 AM,55.9,53.6,92,30.27,0.2,Calm,Calm,-,N/A,Fog,Fog,0,2013-08-17 06:55:00
3:15 AM,56.3,53.8,91,30.27,0.2,Calm,Calm,-,N/A,Fog,Fog,0,2013-08-17 07:15:00
3:35 AM,55.4,53.1,92,30.27,0.2,Calm,Calm,-,N/A,Rain,Rain,0,2013-08-17 07:35:00
3:55 AM,54.9,52.7,92,30.28,0.2,Calm,Calm,-,N/A,Fog,Fog,0,2013-08-17 07:55:00
4:15 AM,54.9,52.7,92,30.28,0.2,Calm,Calm,-,N/A,Rain,Rain,0,2013-08-17 08:15:00
4:35 AM,55.4,53.1,92,30.28,0.2,Calm,Calm,-,N/A,Fog,Fog,0,2013-08-17 08:35:00
4:55 AM,54.7,52.3,92,30.28,0.2,Calm,Calm,-,N/A,Fog,Fog,0,2013-08-17 08:55:00
5:15 AM,54.5,52.2,92,30.28,0.2,Calm,Calm,-,N/A,Fog,Fog,0,2013-08-17 09:15:00
5:35 AM,54.5,52.0,91,30.29,0.2,Calm,Calm,-,N/A,Fog,Fog,0,2013-08-17 09:35:00
5:55 AM,53.8,51.6,92,30.29,0.2,Calm,Calm,-,N/A,Fog,Fog,0,2013-08-17 09:55:00
6:15 AM,54.5,52.2,92,30.30,0.2,Calm,Calm,-,N/A,Fog,Fog,0,2013-08-17 10:15:00
6:35 AM,54.5,52.0,91,30.31,0.2,Calm,Calm,-,N/A,Fog,Fog,0,2013-08-17 10:35:00
6:55 AM,53.6,51.3,92,30.31,0.2,Calm,Calm,-,N/A,Fog,Fog,0,2013-08-17 10:55:00
7:15 AM,53.6,51.3,92,30.32,0.5,Calm,Calm,-,N/A,Fog,Fog,0,2013-08-17 11:15:00
7:35 AM,54.3,52.0,92,30.32,0.2,Calm,Calm,-,N/A,Fog,Fog,0,2013-08-17 11:35:00
7:55 AM,54.5,52.2,92,30.32,0.2,Calm,Calm,-,N/A,Fog,Fog,0,2013-08-17 11:55:00
8:15 AM,54.5,52.2,92,30.33,0.2,Calm,Calm,-,N/A,Fog,Fog,0,2013-08-17 12:15:00
8:35 AM,55.6,53.2,92,30.33,0.2,Calm,Calm,-,N/A,Fog,Fog,0,2013-08-17 12:35:00
8:55 AM,56.1,53.6,91,30.34,0.2,Calm,Calm,-,N/A,Fog,Fog,0,2013-08-17 12:55:00
9:15 AM,57.4,54.9,91,30.34,0.2,Calm,Calm,-,N/A,Fog,Fog,0,2013-08-17 13:15:00
9:35 AM,58.6,56.3,92,30.33,4.0,Calm,Calm,-,N/A,,Mostly Cloudy,0,2013-08-17 13:35:00
9:55 AM,59.4,56.7,91,30.34,3.0,Calm,Calm,-,N/A,,Mostly Cloudy,0,2013-08-17 13:55:00
10:15 AM,61.3,58.6,91,30.34,10.0,Calm,Calm,-,N/A,,Scattered Clouds,0,2013-08-17 14:15:00
10:35 AM,61.7,59.0,91,30.33,10.0,Calm,Calm,-,N/A,,Scattered Clouds,0,2013-08-17 14:35:00
2:15 PM,73.0,46.6,39,30.31,10.0,West,9.2,-,N/A,,Scattered Clouds,280,2013-08-17 18:15:00
2:55 PM,70.9,46.2,41,30.31,10.0,WNW,4.6,-,N/A,,Clear,290,2013-08-17 18:55:00
3:15 PM,72.3,45.5,38,30.30,10.0,WNW,5.8,9.2,N/A,,Scattered Clouds,290,2013-08-17 19:15:00
6:35 PM,70.3,42.8,37,30.29,10.0,West,4.6,-,N/A,,Clear,280,2013-08-17 22:35:00
6:55 PM,69.3,44.2,40,30.30,10.0,Calm,Calm,-,N/A,,Clear,0,2013-08-17 22:55:00
7:55 PM,65.7,47.1,51,30.30,10.0,West,3.5,-,N/A,,Clear,260,2013-08-17 23:55:00
8:15 PM,64.6,45.3,50,30.30,10.0,WNW,4.6,-,N/A,,Clear,290,2013-08-18 00:15:00
8:35 PM,62.1,47.8,60,30.30,10.0,WSW,3.5,-,N/A,,Clear,250,2013-08-18 00:35:00
8:55 PM,57.7,48.4,71,30.30,10.0,Calm,Calm,-,N/A,,Clear,0,2013-08-18 00:55:00
9:15 PM,56.7,49.1,76,30.31,10.0,Calm,Calm,-,N/A,,Clear,0,2013-08-18 01:15:00
9:35 PM,56.8,48.7,74,30.31,10.0,WSW,3.5,-,N/A,,Clear,250,2013-08-18 01:35:00
9:55 PM,54.9,48.7,80,30.32,10.0,Calm,Calm,-,N/A,,Clear,0,2013-08-18 01:55:00
10:15 PM,54.9,47.8,77,30.31,10.0,Calm,Calm,-,N/A,,Clear,0,2013-08-18 02:15:00
10:35 PM,53.6,47.7,80,30.31,10.0,Calm,Calm,-,N/A,,Clear,0,2013-08-18 02:35:00
10:55 PM,52.9,47.5,82,30.31,10.0,Calm,Calm,-,N/A,,Clear,0,2013-08-18 02:55:00
11:15 PM,52.7,47.5,82,30.31,10.0,East,3.5,-,N/A,,Clear,80,2013-08-18 03:15:00
11:35 PM,51.8,47.5,85,30.31,10.0,Calm,Calm,-,N/A,,Clear,0,2013-08-18 03:35:00
11:55 PM,51.1,46.6,85,30.32,10.0,Calm,Calm,-,N/A,,Clear,0,2013-08-18 03:55:00